Location: Castillon
(43.0896°N, 0.2156°E)
Time: 02:26:45
(UTC+00:00)

Cosmos 2263 Rocket - Pass Details

Date: 16 June 2021
Orbit: 822 x 850 km, 71.0° (Epoch: 04 August)

Event Time Altitude Azimuth Distance (km) Brightness Sun altitude
Rises 20:48:06 0° 331° (NNW) 3,418 7.1 -10.2°
Reaches altitude 10° 20:50:36 10° 327° (NNW) 2,481 6.2 -10.5°
Maximum altitude 20:56:08 54° 251° (WSW) 1,022 2.8 -11.2°
Drops below altitude 10° 21:01:39 10° 175° (S) 2,467 4.1 -11.9°
Enters shadow 21:01:50 - 175° (S) 2,539 4.2 -11.9°
